Theta_e
301 301 300 300 301 302 302 303 303 303 303 302 302 302 303 303 303 301 301 305 303 296 297 299 300 297 297 297 293 297 296 297 298 293 292 291 291 292 290 293 294 292 292 291 293 289 287 306 304 297 303 309 311 310
301 301 302 302 302 302 302 303 303 302 302 302 303 303 303 304 303 303 298 305 309 301 298 304 304 305 305 302 300 299 297 298 299 296 296 297 296 297 293 286 298 291 297 295 297 296 307 306 306 309 312 312 311 312
301 300 302 302 302 302 302 302 302 302 302 302 303 303 303 303 304 303 300 303 304 298 298 300 300 306 309 307 310 299 302 302 302 306 300 299 295 298 293 294 294 301 304 298 297 303 305 308 308 310 310 310 312 312
300 300 301 301 302 302 302 302 302 302 302 302 302 303 303 303 303 304 301 305 303 299 290 294 305 303 308 308 307 307 305 307 305 307 302 301 296 302 297 298 296 299 302 300 299 303 304 305 306 309 310 312 312 311
300 300 300 301 301 302 302 302 302 302 302 302 303 303 303 303 303 303 304 306 309 298 290 294 302 303 305 306 304 305 305 304 302 298 301 297 300 301 301 300 297 300 298 297 298 304 306 306 309 310 309 310 312 310
300 300 300 300 301 301 301 302 302 302 302 302 302 302 302 302 302 300 293 302 306 305 295 290 301 300 302 303 302 301 302 303 304 299 299 301 304 300 297 293 299 301 302 302 300 307 307 310 310 310 307 309 311 310
299 300 300 300 300 300 300 300 302 302 301 301 302 302 301 302 302 297 294 300 304 307 296 291 292 299 301 301 301 300 302 300 301 298 300 299 300 299 296 293 299 302 303 304 307 306 305 308 307 308 307 308 309 310
299 299 299 299 300 300 300 300 301 301 300 301 301 301 301 302 302 298 302 303 304 300 297 289 289 294 301 296 295 302 299 300 301 300 302 300 302 303 295 299 301 303 303 303 304 306 307 310 309 307 306 306 305 305
298 299 299 299 300 300 300 300 300 300 300 300 301 301 301 300 296 297 301 303 310 301 290 289 287 287 300 296 298 300 301 293 300 297 297 299 298 293 298 299 301 303 303 304 306 307 306 306 305 305 304 303 302 302
298 298 299 299 299 299 299 299 299 300 300 300 301 296 291 296 300 300 300 295 295 296 296 290 294 290 296 293 294 293 295 292 289 294 299 294 294 298 295 299 300 302 303 304 302 302 303 303 303 303 301 302 302 301
299 298 299 299 299 298 298 299 299 299 299 300 294 291 299 300 300 295 289 289 290 287 292 292 293 291 296 288 287 290 285 289 287 292 292 291 291 288 291 293 294 296 299 301 302 302 302 301 301 300 294 289 288 288
299 299 299 298 298 298 299 299 300 301 300 298 297 299 299 295 290 286 286 289 287 285 292 292 293 294 290 295 290 290 287 288 285 295 290 285 284 287 287 288 288 290 292 291 293 293 292 291 290 288 286 284 283 282
299 299 299 298 298 298 298 299 299 300 301 303 297 290 291 289 283 282 279 283 286 292 293 293 288 292 292 293 288 287 285 286 291 286 281 281 284 286 285 285 284 284 285 284 284 285 284 284 283 282 280 280 280 279
298 298 298 298 298 298 298 298 299 300 300 292 287 282 284 282 282 281 281 282 285 286 289 294 291 290 290 287 286 284 285 285 285 283 279 282 283 283 283 283 282 281 281 281 281 281 281 281 281 281 281 280 279 278
298 298 298 298 298 298 298 298 299 300 293 285 286 278 280 283 284 283 284 284 284 284 287 291 289 290 286 285 285 285 284 280 280 278 281 283 284 283 282 283 283 282 282 282 282 281 281 281 280 279 280 280 279 278
299 298 297 297 297 297 298 299 298 297 291 283 280 279 280 281 279 281 281 281 283 282 284 289 286 286 284 285 282 278 279 274 277 280 282 283 282 283 283 283 283 283 282 282 281 281 281 280 279 279 280 279 279 278
299 297 297 298 297 297 297 297 292 285 283 281 279 281 279 279 277 280 281 281 283 282 284 287 280 279 286 280 276 277 275 277 279 280 281 282 282 282 282 282 282 282 281 281 281 281 280 280 280 278 277 277 278 277
297 298 298 298 299 297 294 292 287 283 277 279 278 278 279 279 278 279 282 282 283 284 283 278 282 276 273 273 272 276 280 279 279 278 279 280 280 280 281 281 281 281 280 280 280 280 279 278 278 277 278 278 278 278
299 299 297 298 297 295 289 288 288 279 279 280 279 280 279 279 279 280 281 281 282 283 281 277 272 270 271 274 274 276 279 278 276 276 276 277 278 278 278 278 278 278 278 278 277 277 277 278 278 278 278 278 276 278
297 296 296 296 297 292 286 286 290 282 279 280 281 278 278 277 278 278 278 279 278 276 273 270 269 271 272 274 276 276 279 280 277 275 274 275 276 276 277 277 276 276 276 276 276 276 275 275 275 275 275 275 273 273
295 295 295 295 295 291 288 287 285 285 284 283 283 281 279 280 276 275 275 278 274 272 270 273 272 274 275 276 277 276 275 276 275 275 273 273 275 275 274 274 275 274 273 273 272 272 273 273 274 274 272 271 272 274
294 292 296 295 290 289 288 291 288 289 286 284 283 283 279 277 277 276 277 273 272 272 273 273 274 273 273 273 274 275 275 274 274 273 273 273 271 272 272 272 272 270 271 271 271 270 270 272 273 273 273 272 271 270
291 294 292 291 285 285 283 291 284 285 281 281 282 278 278 277 278 280 273 273 273 277 276 275 275 275 274 275 274 274 275 274 272 272 272 272 272 272 272 272 272 271 270 271 272 271 270 270 270 270 271 271 270 270
291 286 283 283 284 280 285 282 284 282 281 279 277 274 275 277 279 274 270 271 274 276 275 277 277 274 273 272 271 272 273 274 273 272 272 271 269 269 270 271 271 272 271 271 271 270 270 270 269 268 267 268 267 267
281 277 282 278 284 281 279 279 279 278 275 277 275 274 275 279 273 271 270 271 272 274 274 275 275 274 271 271 271 271 273 272 270 269 272 274 272 270 269 269 268 269 271 270 269 268 268 268 268 267 266 265 265 265
274 277 277 278 278 278 278 275 276 276 276 274 274 276 278 275 271 268 270 272 271 272 273 274 272 271 270 271 269 269 270 273 271 267 268 269 270 270 269 268 266 266 269 269 269 267 266 266 266 266 266 264 262 264
275 275 278 282 281 280 278 278 279 276 273 272 274 274 274 269 267 269 272 273 271 272 274 274 273 272 270 270 270 270 270 270 269 268 269 269 268 268 267 265 263 265 268 268 267 267 266 265 265 265 265 264 264 264
277 277 272 275 274 277 273 273 272 271 272 273 275 268 268 268 267 271 271 273 273 273 272 272 272 272 271 271 272 272 271 270 269 270 269 269 268 268 267 266 266 266 265 265 266 265 265 264 264 264 263 263 263 265
276 277 274 268 272 271 271 271 271 271 272 274 272 268 267 270 272 271 272 273 274 273 271 270 270 272 271 270 270 270 270 270 268 265 265 266 265 265 267 267 266 266 267 267 265 265 264 264 262 263 264 264 264 265
275 279 272 270 269 267 269 272 270 273 273 272 270 269 268 269 271 274 274 274 272 271 271 271 272 272 270 269 267 266 267 266 266 266 266 264 264 266 266 266 266 266 266 266 265 265 264 265 265 265 263 263 262 261
279 278 273 272 269 270 271 272 273 273 273 272 273 270 267 268 270 272 272 272 271 271 270 269 269 270 269 268 268 267 265 265 263 264 266 266 266 265 264 265 265 265 265 265 264 264 262 263 264 263 262 261 260 260
277 274 271 268 269 271 274 275 274 272 272 271 269 269 269 270 267 269 271 272 271 270 266 270 269 267 267 267 266 265 263 265 265 264 265 265 265 265 265 265 265 265 264 263 264 263 262 261 261 262 261 261 260 259
275 275 274 272 270 270 272 273 272 270 272 270 270 271 270 270 267 268 270 272 271 271 270 270 269 267 266 266 266 265 264 264 261 263 261 261 259 260 261 265 264 264 263 263 263 263 262 261 261 260 260 259 259 259
Wind_Speed
27 27 29 25 23 23 28 31 30 28 30 32 36 37 34 33 33 16 7 11 7 3 6 3 15 12 18 17 15 15 13 3 11 9 9 7 6 7 8 14 14 13 7 7 5 6 14 3 6 19 8 6 6 9
24 27 19 13 15 16 16 6 25 29 26 25 33 35 35 35 34 22 6 10 1 2 2 2 10 11 20 21 10 11 14 10 9 7 6 6 3 3 7 9 12 11 13 8 8 7 6 7 6 4 6 5 5 7
23 25 14 14 15 15 16 21 25 26 26 24 30 33 34 33 30 9 10 10 4 4 3 4 10 8 6 1 3 7 9 6 14 8 4 4 3 5 4 6 8 12 10 4 12 12 6 5 6 5 5 5 7 8
22 25 18 14 17 16 18 21 23 25 25 27 29 32 33 34 28 8 12 7 4 8 3 2 6 4 2 2 5 3 5 5 6 7 6 3 4 6 6 7 9 8 12 12 14 21 7 13 9 3 5 7 5 5
23 22 21 15 14 17 18 19 21 24 26 28 28 28 33 33 19 6 7 4 3 5 2 4 7 6 5 4 4 5 5 10 5 12 3 6 6 4 0 3 5 7 7 4 3 5 3 2 7 8 6 8 12 7
22 20 24 22 19 21 23 21 25 26 28 30 29 28 32 30 15 4 4 3 3 4 2 5 3 6 6 6 7 8 3 5 5 4 6 5 7 5 2 5 11 11 11 12 8 5 6 3 3 2 4 9 10 5
23 20 23 25 27 28 28 27 25 31 34 31 28 32 32 26 8 2 2 9 12 11 3 2 4 7 8 7 5 4 4 3 4 3 5 6 7 8 5 7 8 10 10 8 7 6 6 4 2 5 4 8 7 7
21 22 22 22 24 29 29 31 33 35 32 28 27 23 20 19 9 4 6 9 3 2 2 1 1 3 9 4 3 5 3 4 5 3 3 6 6 4 3 8 12 14 16 14 13 10 4 4 1 3 2 4 5 5
18 20 19 21 22 21 25 31 34 32 31 26 22 20 6 3 3 4 4 4 3 2 3 2 1 1 2 4 2 5 6 6 3 1 2 3 3 5 3 5 7 13 8 10 12 7 9 5 6 4 4 3 5 4
16 19 20 19 23 27 25 24 24 23 20 18 4 5 5 4 12 5 5 2 0 1 2 1 3 1 4 3 2 3 2 2 4 6 2 4 5 6 16 13 12 12 11 10 7 8 9 7 4 5 5 3 2 6
15 16 18 20 20 20 19 18 15 11 9 3 5 5 8 4 2 1 3 2 3 1 3 4 6 3 3 2 1 4 2 3 5 6 7 4 2 6 15 14 14 15 14 12 8 6 6 5 4 9 14 17 18 19
15 16 20 21 17 16 12 9 10 3 4 3 9 6 2 1 3 3 2 2 2 4 5 4 3 4 2 1 1 3 3 2 5 4 4 3 4 9 10 10 12 11 12 15 17 17 17 17 16 17 16 16 16 17
18 18 17 15 12 9 10 10 9 6 2 3 2 4 1 2 3 2 5 3 2 3 1 4 3 3 4 2 0 2 4 4 1 3 5 4 7 7 8 8 11 12 13 15 16 15 16 17 17 17 17 14 17 17
17 14 13 11 10 10 11 10 9 5 3 5 4 6 4 5 6 5 6 4 4 5 7 4 2 2 3 3 4 4 2 2 3 5 6 6 9 8 9 9 9 11 12 14 14 15 16 16 16 16 16 15 16 17
16 14 11 10 9 9 8 7 9 5 5 6 6 6 6 4 5 5 6 3 4 6 4 1 1 3 4 3 2 3 2 5 8 6 5 7 9 8 8 8 9 11 11 12 13 14 15 16 16 18 17 16 17 17
14 10 5 6 10 9 8 4 5 6 5 5 9 5 9 3 7 8 7 5 4 6 4 1 3 3 2 2 4 8 5 7 6 5 7 8 9 10 10 11 11 12 13 14 14 16 16 17 18 18 18 17 16 16
6 3 4 3 6 11 10 4 5 8 6 5 5 7 7 4 7 7 7 7 5 4 3 3 6 5 4 4 5 7 6 6 7 8 8 11 11 11 10 11 12 13 14 15 15 16 16 15 16 17 18 15 16 16
4 4 4 8 6 5 5 5 5 6 8 6 4 7 7 5 7 7 7 8 5 3 4 6 5 8 7 6 5 6 4 8 8 8 8 11 13 13 11 13 13 14 15 15 15 14 14 14 14 11 14 13 12 12
8 5 6 9 6 2 4 5 4 6 5 3 4 5 3 5 8 8 8 8 7 7 5 5 8 6 5 5 6 7 5 7 8 8 10 14 13 13 13 14 15 16 16 16 15 12 12 15 12 9 9 9 9 8
13 8 8 9 8 4 5 4 3 5 3 3 4 7 6 6 7 7 8 8 7 6 8 7 6 5 4 5 5 6 4 7 7 8 9 9 9 12 13 11 10 12 12 14 12 13 11 11 11 11 10 10 9 9
5 4 6 6 4 7 5 3 5 3 4 3 3 6 5 6 11 11 10 8 8 7 6 6 6 6 7 8 7 7 10 10 9 8 8 8 8 9 9 9 11 9 10 9 10 10 11 10 8 8 9 9 8 7
1 2 3 6 4 5 5 7 3 3 3 4 5 5 5 8 8 9 9 11 8 8 6 7 9 8 10 13 10 11 11 13 13 10 12 10 8 8 8 8 8 10 9 9 9 9 9 8 7 8 8 7 8 8
0 2 4 4 5 6 3 2 4 4 3 3 3 5 5 5 5 5 6 7 6 7 8 8 11 12 11 12 13 14 13 12 10 9 9 9 9 8 8 9 8 8 8 9 8 8 7 9 9 8 7 7 7 6
7 6 6 5 6 5 2 4 3 3 4 3 4 4 4 4 3 5 6 4 5 6 8 7 6 7 9 11 10 10 9 7 9 9 8 8 8 9 9 8 8 8 8 7 7 7 7 7 8 8 8 7 7 6
7 8 5 7 4 4 4 4 4 4 5 5 4 4 3 2 4 4 4 4 5 6 6 7 8 8 8 8 8 8 10 8 8 9 8 6 7 7 8 8 9 9 7 6 7 7 7 6 6 7 7 7 7 7
8 9 6 5 4 4 4 4 4 4 3 4 5 3 2 3 4 5 4 5 6 6 6 5 6 7 8 8 7 7 8 6 7 8 8 9 9 6 6 7 7 8 7 7 6 7 7 6 6 7 7 8 6 6
6 6 5 4 4 4 5 5 6 6 6 5 3 3 2 4 5 4 4 5 5 5 6 6 6 7 7 7 7 7 7 8 8 8 7 8 8 9 8 6 7 6 6 7 7 7 6 6 6 6 5 6 6 5
5 6 5 5 6 7 5 5 5 6 5 5 2 5 4 5 5 4 4 5 5 5 5 6 7 7 7 7 5 4 5 5 5 6 7 8 7 6 7 6 4 4 5 6 6 6 6 5 5 5 4 4 3 3
6 5 5 6 6 7 9 6 5 4 5 4 2 3 3 4 3 5 5 5 4 5 5 6 5 5 6 6 6 6 6 6 3 3 3 5 5 5 5 4 5 4 4 4 5 5 4 4 3 4 4 4 4 5
4 3 5 7 6 6 6 6 6 3 5 6 6 8 8 5 4 4 3 3 3 5 5 4 3 4 4 4 5 6 6 6 7 6 4 5 4 3 4 4 4 3 3 4 4 2 4 2 1 1 2 3 4 5
3 4 6 6 6 6 6 5 6 7 7 7 7 8 6 4 3 4 5 4 4 4 4 4 3 3 3 3 3 2 5 5 5 7 5 4 3 4 4 3 3 4 3 3 3 3 4 5 4 3 4 4 3 4
4 5 5 5 5 3 3 3 2 3 3 4 4 3 3 4 4 3 2 1 2 3 3 2 3 5 4 4 4 4 5 4 4 2 4 4 5 4 3 2 2 2 3 4 3 3 3 4 5 5 5 6 6 6
7 8 8 6 4 4 2 3 3 3 2 2 3 3 3 4 4 4 2 2 4 3 4 5 6 5 4 4 5 3 2 5 6 6 5 5 4 4 4 4 4 4 3 4 4 4 4 5 5 6 7 6 6 6
Wind_Direction
316 313 302 293 288 283 277 258 231 206 193 188 190 188 187 181 164 167 155 186 206 175 123 162 222 222 202 211 204 197 202 263 212 173 177 208 217 221 227 199 169 196 214 218 220 242 245 343 226 217 226 226 271 286
327 329 336 331 330 334 345 91 156 157 157 169 181 180 173 169 162 165 158 174 206 107 162 172 248 263 261 218 218 196 191 184 214 185 201 200 271 143 198 225 192 189 223 218 198 202 186 201 234 284 333 344 298 326
344 352 355 4 19 40 73 94 116 136 145 143 143 153 157 156 153 166 159 158 165 96 42 216 209 226 311 321 232 216 183 180 251 206 188 218 196 213 216 224 217 193 174 236 344 245 208 211 237 261 271 281 328 310
3 5 16 39 41 62 79 97 111 123 134 142 146 147 146 150 150 133 153 183 157 94 213 218 288 194 9 273 205 167 322 284 291 237 216 213 184 226 206 233 236 231 186 183 198 245 318 291 290 328 321 299 259 290
11 15 28 46 58 73 85 99 113 121 127 126 132 144 143 147 133 96 136 170 76 101 135 169 206 181 205 189 140 192 275 261 189 249 201 190 206 265 3 212 267 256 251 236 230 230 266 286 26 24 348 328 276 193
18 31 32 51 79 80 81 96 108 113 114 110 115 128 134 139 119 82 93 335 38 81 258 173 119 175 176 190 201 191 280 279 228 220 255 236 199 236 214 228 238 256 266 277 270 248 254 348 340 268 328 312 333 141
31 44 46 47 74 87 88 89 115 114 113 107 99 113 132 136 152 64 139 147 186 225 253 113 160 168 164 154 191 196 204 242 265 247 248 218 215 239 250 226 251 254 257 270 276 258 262 289 5 83 27 334 7 337
43 47 59 60 75 82 80 85 93 110 101 94 91 89 92 87 90 77 35 68 327 313 26 25 91 162 177 161 149 198 204 230 213 234 219 205 229 185 241 243 246 262 274 280 282 286 278 234 327 328 41 342 332 295
55 53 55 63 83 98 81 93 94 99 103 110 117 126 101 58 85 98 334 323 78 255 137 39 272 208 176 228 176 168 182 216 245 228 292 336 222 212 232 286 336 353 344 1 331 351 17 339 77 314 54 7 309 48
62 62 59 70 78 95 99 96 104 113 130 152 152 60 61 49 112 155 28 82 281 41 78 93 315 332 337 324 126 34 36 226 215 208 249 229 257 98 16 7 7 358 354 1 5 22 19 23 18 55 58 35 64 93
81 83 73 75 80 86 95 101 98 56 5 18 56 41 112 112 247 32 99 161 128 127 187 207 207 190 20 26 3 147 174 262 201 182 192 201 184 9 357 5 7 4 1 20 8 30 32 23 353 89 64 58 63 70
97 96 95 92 84 76 60 36 339 287 32 50 107 123 145 23 58 79 104 100 192 220 164 183 104 85 123 236 256 176 230 255 176 132 126 137 36 354 353 2 13 15 33 40 43 53 52 64 76 84 82 80 79 83
98 99 92 86 83 61 40 36 31 25 318 149 109 74 14 35 71 148 160 183 194 27 176 144 128 134 159 53 50 263 209 221 138 106 80 59 4 359 0 20 35 40 53 63 63 65 68 72 73 84 89 84 87 84
101 92 85 74 61 52 44 17 351 319 3 51 34 60 5 47 37 30 347 348 347 318 342 110 131 188 124 137 197 236 210 284 199 62 66 22 7 14 27 36 52 52 56 65 68 72 74 76 77 77 81 86 89 86
103 91 81 53 42 47 38 11 345 57 51 48 17 40 46 346 52 13 359 333 3 314 310 84 45 42 28 16 287 294 126 70 33 53 27 21 22 35 45 51 62 70 71 74 75 78 79 80 77 76 74 79 81 84
122 96 48 54 50 34 357 54 30 54 55 64 38 9 346 11 17 0 1 341 344 324 289 329 68 79 83 347 30 7 56 39 42 32 20 37 38 46 55 64 68 72 75 77 75 76 76 74 77 78 75 72 76 81
226 94 226 9 71 49 25 61 50 52 52 41 76 45 13 20 351 355 343 337 312 281 35 42 55 11 324 50 58 16 31 50 39 41 32 33 51 60 66 73 73 74 75 74 75 73 75 78 79 77 77 75 76 73
73 139 45 17 347 26 36 45 68 63 73 26 51 42 40 21 4 5 360 353 345 40 17 51 10 37 28 27 46 11 44 73 55 45 46 49 48 48 55 67 69 73 76 77 77 79 77 78 80 82 88 91 92 86
112 93 21 7 349 84 68 46 47 86 69 101 65 46 32 41 28 13 21 15 29 39 71 57 52 36 39 19 1 353 25 75 80 64 50 46 51 55 59 61 64 66 66 65 63 62 59 57 61 64 66 63 62 65
74 36 330 322 345 77 78 63 70 79 70 122 134 94 68 40 25 31 34 35 51 62 53 47 41 30 14 4 2 350 18 94 93 85 68 53 45 51 53 59 60 62 62 61 59 60 63 62 56 53 53 57 61 50
54 301 313 331 60 58 65 47 65 85 136 82 117 77 62 65 46 37 43 34 52 44 72 69 71 58 44 38 35 42 41 49 59 72 84 78 59 58 57 52 56 59 61 58 60 59 54 56 63 67 66 55 42 59
78 304 18 7 67 61 58 14 70 114 59 98 58 52 34 32 29 31 38 36 59 53 44 47 56 62 54 45 48 53 58 62 60 57 52 55 60 61 61 59 60 62 60 62 62 59 52 44 52 47 56 81 78 53
351 25 35 32 74 55 33 357 55 29 56 63 39 42 36 42 36 53 67 43 53 34 72 70 63 58 66 64 64 57 53 65 68 66 65 63 63 61 61 58 55 62 64 59 60 63 61 57 44 51 49 44 56 61
32 47 33 40 44 85 76 40 37 69 43 36 55 60 42 41 74 68 68 61 39 40 32 56 94 89 73 60 54 48 47 64 77 76 73 75 70 61 54 51 49 51 59 65 58 55 55 54 59 55 35 42 47 49
69 17 0 56 27 74 71 63 34 64 58 48 77 60 49 26 65 71 82 92 55 31 63 53 51 65 76 74 67 60 52 52 57 55 31 61 107 107 86 70 55 39 23 55 63 56 56 45 52 68 66 42 28 53
71 23 29 31 35 48 47 73 58 57 64 66 54 58 7 51 63 70 69 78 68 43 30 54 88 84 69 60 67 51 26 53 73 65 46 28 23 44 57 70 70 51 32 24 33 62 59 57 48 45 72 72 39 38
63 65 47 12 38 88 102 66 60 57 49 40 39 21 37 76 78 80 94 45 83 55 42 40 66 83 89 86 78 69 62 54 64 77 72 62 57 45 42 58 63 32 27 41 35 37 51 57 51 40 51 55 46 30
55 42 64 37 61 35 72 54 44 41 48 344 16 32 40 30 67 48 83 90 94 92 79 63 50 56 59 55 56 82 109 120 120 115 104 88 67 65 86 85 63 67 68 24 39 36 33 41 38 55 33 50 35 36
62 86 83 34 57 53 31 33 60 53 335 318 46 71 88 48 39 110 110 113 125 120 109 105 103 109 101 83 57 42 22 11 68 83 63 80 83 64 51 43 64 18 16 98 96 62 67 51 54 7 5 6 3 352
59 44 92 47 52 58 39 35 80 59 66 72 90 104 94 87 41 47 109 128 113 88 80 76 53 67 52 85 90 78 51 33 19 9 46 69 68 52 42 38 36 41 13 22 11 66 40 337 301 178 18 355 20 348
77 70 75 66 78 84 107 126 112 77 64 61 62 84 106 119 94 31 44 62 91 127 135 116 98 72 72 35 27 88 114 82 55 37 38 76 64 57 46 19 26 345 7 12 356 20 5 328 343 347 349 342 352 335
37 64 110 102 107 137 228 211 85 89 136 100 85 110 175 180 123 128 122 189 190 135 48 79 129 107 80 80 85 76 39 106 118 87 40 29 36 23 12 8 346 347 4 330 321 328 342 336 325 328 331 328 347 327
100 85 92 101 123 152 161 210 109 117 97 94 82 20 40 10 79 94 117 342 357 80 116 84 85 89 81 50 75 107 121 78 68 73 74 67 29 359 308 328 4 337 321 308 313 312 307 317 322 332 317 309 318 327